ISR42 LLER-LLBG

Flight info

Callsign ISR42
Flight time 0h 34m
Altitude 20000
Route NURIT J10 AMMIT
Aircraft A320/M-SDE3FGHIRWY/LB1

Departure

Time 2026-04-22 12:24
Airport Ramon International Airport (LLER)

Arrival

Time 2026-04-22 12:58
Airport Ben Gurion International Airport (LLBG)
Time Latitude Longitude Altitude Speed Heading
2026-04-22 11:43 29.72598 35.00832 252 ft 0 kts 285°
2026-04-22 12:14 29.72595 35.00844 252 ft 4 kts 270°
2026-04-22 12:14 29.72587 35.00849 252 ft 4 kts 210°
2026-04-22 12:14 29.72586 35.00840 252 ft 4 kts 277°
2026-04-22 12:14 29.72583 35.00871 252 ft 4 kts 271°
2026-04-22 12:15 29.72586 35.00900 252 ft 4 kts 238°
2026-04-22 12:15 29.72595 35.00912 252 ft 3 kts 193°
2026-04-22 12:15 29.72570 35.00905 252 ft 3 kts 193°
2026-04-22 12:15 29.72566 35.00904 252 ft 0 kts 193°
2026-04-22 12:19 29.72552 35.00900 252 ft 3 kts 194°
2026-04-22 12:20 29.72519 35.00891 252 ft 6 kts 193°
2026-04-22 12:20 29.72467 35.00877 252 ft 9 kts 193°
2026-04-22 12:20 29.72448 35.00875 252 ft 3 kts 173°
2026-04-22 12:20 29.72416 35.00925 253 ft 12 kts 106°
2026-04-22 12:21 29.72392 35.01046 255 ft 11 kts 103°
2026-04-22 12:21 29.72353 35.01083 258 ft 6 kts 167°
2026-04-22 12:21 29.72306 35.01068 257 ft 8 kts 199°
2026-04-22 12:21 29.72243 35.01060 258 ft 9 kts 162°
2026-04-22 12:22 29.72219 35.01109 263 ft 6 kts 110°
2026-04-22 12:22 29.72210 35.01152 269 ft 6 kts 102°
2026-04-22 12:22 29.72201 35.01201 277 ft 7 kts 101°
2026-04-22 12:22 29.72201 35.01262 280 ft 6 kts 41°
2026-04-22 12:23 29.72250 35.01276 280 ft 10 kts 12°
2026-04-22 12:23 29.72505 35.01345 278 ft 72 kts 13°
2026-04-22 12:23 29.73182 35.01536 281 ft 125 kts 14°
2026-04-22 12:23 29.74109 35.01802 615 ft 138 kts 13°
2026-04-22 12:24 29.75044 35.02036 1219 ft 139 kts
2026-04-22 12:24 29.76055 35.02181 1542 ft 156 kts
2026-04-22 12:24 29.77214 35.02323 1766 ft 180 kts
2026-04-22 12:24 29.78537 35.02480 2054 ft 203 kts
2026-04-22 12:25 29.80026 35.02645 2407 ft 223 kts
2026-04-22 12:25 29.81613 35.02849 3037 ft 235 kts
2026-04-22 12:25 29.83280 35.03092 3642 ft 249 kts
2026-04-22 12:25 29.85031 35.03346 4487 ft 254 kts
2026-04-22 12:26 29.86837 35.03607 5241 ft 267 kts
2026-04-22 12:26 29.88712 35.03878 6012 ft 276 kts
2026-04-22 12:26 29.90648 35.04161 6763 ft 284 kts
2026-04-22 12:26 29.92622 35.04451 7611 ft 288 kts
2026-04-22 12:27 29.94625 35.04749 8464 ft 292 kts
2026-04-22 12:27 29.96654 35.05051 9340 ft 295 kts
2026-04-22 12:27 29.98703 35.05359 10195 ft 298 kts
2026-04-22 12:27 30.00834 35.05676 10560 ft 320 kts
2026-04-22 12:28 30.03114 35.06009 10914 ft 338 kts
2026-04-22 12:28 30.05476 35.06355 11622 ft 344 kts
2026-04-22 12:28 30.07865 35.06719 12438 ft 348 kts
2026-04-22 12:28 30.10270 35.07166 13244 ft 352 kts
2026-04-22 12:29 30.12695 35.07675 14008 ft 356 kts
2026-04-22 12:29 30.15145 35.08211 14685 ft 361 kts
2026-04-22 12:29 30.17629 35.08755 15370 ft 366 kts
2026-04-22 12:29 30.20143 35.09296 16016 ft 370 kts
2026-04-22 12:30 30.25274 35.10363 17330 ft 379 kts
2026-04-22 12:30 30.27890 35.10858 17996 ft 383 kts
2026-04-22 12:30 30.30539 35.11341 18616 ft 388 kts
2026-04-22 12:31 30.33213 35.11825 19244 ft 391 kts
2026-04-22 12:31 30.35913 35.12323 19918 ft 394 kts
2026-04-22 12:31 30.38631 35.12840 20612 ft 397 kts
2026-04-22 12:31 30.41365 35.13369 20953 ft 399 kts
2026-04-22 12:32 30.44101 35.13903 21049 ft 395 kts
2026-04-22 12:32 30.49430 35.14955 21086 ft 389 kts
2026-04-22 12:32 30.52100 35.15476 21076 ft 388 kts
2026-04-22 12:33 30.54763 35.16007 21076 ft 389 kts
2026-04-22 12:33 30.57397 35.16935 21076 ft 393 kts 19°
2026-04-22 12:33 30.59886 35.18152 21076 ft 393 kts 20°
2026-04-22 12:33 30.62407 35.19384 21075 ft 393 kts 20°
2026-04-22 12:34 30.64932 35.20618 21077 ft 393 kts 20°
2026-04-22 12:34 30.67455 35.21856 21065 ft 394 kts 20°
2026-04-22 12:34 30.69953 35.23104 21012 ft 380 kts 20°
2026-04-22 12:34 30.72418 35.24327 21078 ft 390 kts 20°
2026-04-22 12:35 30.74933 35.25559 21081 ft 393 kts 19°
2026-04-22 12:35 30.77458 35.26793 21085 ft 395 kts 19°
2026-04-22 12:35 30.79990 35.28030 21084 ft 395 kts 19°
2026-04-22 12:35 30.82522 35.29270 21084 ft 395 kts 19°
2026-04-22 12:36 30.85053 35.30511 21084 ft 395 kts 19°
2026-04-22 12:36 30.87582 35.31755 21084 ft 395 kts 20°
2026-04-22 12:36 30.90112 35.33006 21090 ft 395 kts 20°
2026-04-22 12:36 30.92639 35.34245 21083 ft 393 kts 18°
2026-04-22 12:37 30.95251 35.35126 21096 ft 389 kts
2026-04-22 12:37 30.97928 35.35501 21095 ft 387 kts
2026-04-22 12:37 31.00605 35.35770 21070 ft 386 kts
2026-04-22 12:37 31.03258 35.36041 20778 ft 380 kts
2026-04-22 12:38 31.05881 35.36310 20332 ft 378 kts
2026-04-22 12:38 31.08497 35.36579 19874 ft 377 kts
2026-04-22 12:38 31.11105 35.36849 19425 ft 376 kts
2026-04-22 12:38 31.13707 35.37121 18966 ft 375 kts
2026-04-22 12:39 31.16308 35.37391 18507 ft 374 kts
2026-04-22 12:39 31.21470 35.37932 17510 ft 371 kts
2026-04-22 12:39 31.24024 35.38201 17152 ft 366 kts
2026-04-22 12:40 31.26567 35.38471 16696 ft 364 kts
2026-04-22 12:40 31.29086 35.38734 16105 ft 366 kts
2026-04-22 12:40 31.31589 35.38989 15827 ft 358 kts
2026-04-22 12:40 31.34071 35.39362 15364 ft 358 kts
2026-04-22 12:41 31.36493 35.39927 14962 ft 351 kts
2026-04-22 12:41 31.38874 35.40458 14346 ft 344 kts
2026-04-22 12:41 31.41191 35.40965 13925 ft 333 kts
2026-04-22 12:41 31.43468 35.41461 13480 ft 333 kts
2026-04-22 12:42 31.45742 35.41958 13061 ft 332 kts
2026-04-22 12:42 31.48011 35.42457 12640 ft 332 kts
2026-04-22 12:42 31.50275 35.42959 12228 ft 331 kts
2026-04-22 12:42 31.52536 35.43464 11814 ft 330 kts
2026-04-22 12:43 31.54792 35.43970 11400 ft 330 kts
2026-04-22 12:43 31.57050 35.44477 10977 ft 330 kts
2026-04-22 12:43 31.59306 35.44983 10551 ft 330 kts
2026-04-22 12:43 31.61563 35.45486 10154 ft 330 kts
2026-04-22 12:44 31.63790 35.45987 10000 ft 321 kts
2026-04-22 12:44 31.65932 35.46490 10012 ft 307 kts
2026-04-22 12:44 31.67991 35.46984 10012 ft 300 kts
2026-04-22 12:44 31.70006 35.47469 10014 ft 299 kts
2026-04-22 12:45 31.72056 35.47865 10013 ft 297 kts 358°
2026-04-22 12:45 31.74062 35.47458 10016 ft 292 kts 337°
2026-04-22 12:45 31.75840 35.46343 10026 ft 289 kts 321°
2026-04-22 12:45 31.77325 35.44768 10022 ft 287 kts 312°
2026-04-22 12:46 31.78725 35.43099 10014 ft 287 kts 313°
2026-04-22 12:46 31.80136 35.41444 10015 ft 287 kts 313°
2026-04-22 12:46 31.81536 35.39813 10011 ft 278 kts 313°
2026-04-22 12:46 31.82902 35.38222 10014 ft 276 kts 313°
2026-04-22 12:47 31.84260 35.36634 10006 ft 275 kts 313°
2026-04-22 12:47 31.85616 35.35048 10006 ft 275 kts 313°
2026-04-22 12:47 31.86992 35.33433 9539 ft 284 kts 313°
2026-04-22 12:47 31.88372 35.31809 9395 ft 277 kts 313°
2026-04-22 12:48 31.89722 35.30221 9261 ft 272 kts 313°
2026-04-22 12:48 31.91061 35.28648 9181 ft 272 kts 313°
2026-04-22 12:48 31.92396 35.27072 9117 ft 272 kts 313°
2026-04-22 12:48 31.93729 35.25498 9049 ft 271 kts 312°
2026-04-22 12:49 31.95048 35.23922 8971 ft 269 kts 312°
2026-04-22 12:49 31.95980 35.22949 8831 ft 275 kts 323°
2026-04-22 12:49 31.98326 35.21603 8326 ft 283 kts 332°
2026-04-22 12:49 31.99520 35.20986 8089 ft 284 kts 334°
2026-04-22 12:50 32.01336 35.20053 7725 ft 285 kts 333°
2026-04-22 12:50 32.03165 35.19124 7333 ft 286 kts 335°
2026-04-22 12:50 32.04991 35.18201 7032 ft 287 kts 335°
2026-04-22 12:50 32.06809 35.17262 6687 ft 287 kts 335°
2026-04-22 12:51 32.09037 35.15657 6490 ft 276 kts 319°
2026-04-22 12:51 32.10002 35.14721 6403 ft 266 kts 319°
2026-04-22 12:51 32.11393 35.13379 6229 ft 251 kts 319°
2026-04-22 12:51 32.12689 35.12054 5918 ft 241 kts 310°
2026-04-22 12:52 32.13766 35.10525 5399 ft 245 kts 308°
2026-04-22 12:52 32.14847 35.08956 4912 ft 245 kts 308°
2026-04-22 12:52 32.15907 35.07417 4539 ft 238 kts 308°
2026-04-22 12:52 32.16934 35.05928 4249 ft 227 kts 308°
2026-04-22 12:53 32.17664 35.04382 4129 ft 209 kts 283°
2026-04-22 12:53 32.17677 35.02742 4045 ft 197 kts 257°
2026-04-22 12:53 32.17079 35.01314 3807 ft 195 kts 236°
2026-04-22 12:53 32.16299 35.00017 3546 ft 193 kts 236°
2026-04-22 12:54 32.15390 34.98851 3265 ft 195 kts 215°
2026-04-22 12:54 32.14206 34.98028 2917 ft 199 kts 209°
2026-04-22 12:54 32.13000 34.97256 2643 ft 196 kts 209°
2026-04-22 12:54 32.11803 34.96485 2371 ft 198 kts 209°
2026-04-22 12:55 32.10611 34.95714 2088 ft 190 kts 210°
2026-04-22 12:55 32.09499 34.94996 1875 ft 173 kts 211°
2026-04-22 12:55 32.08489 34.94342 1629 ft 159 kts 211°
2026-04-22 12:55 32.07529 34.93721 1426 ft 156 kts 213°
2026-04-22 12:56 32.06583 34.93108 1225 ft 155 kts 214°
2026-04-22 12:56 32.05643 34.92498 1001 ft 156 kts 213°
2026-04-22 12:56 32.04700 34.91887 817 ft 152 kts 211°
2026-04-22 12:56 32.03781 34.91293 624 ft 152 kts 212°
2026-04-22 12:57 32.02859 34.90694 434 ft 150 kts 210°
2026-04-22 12:57 32.01954 34.90113 222 ft 147 kts 214°
2026-04-22 12:57 32.01103 34.89554 139 ft 124 kts 210°
2026-04-22 12:57 32.00576 34.89221 133 ft 54 kts 210°
2026-04-22 12:58 32.00288 34.89033 134 ft 29 kts 212°
2026-04-22 12:58 32.00163 34.88878 135 ft 20 kts 243°
2026-04-22 12:58 32.00113 34.88779 132 ft 7 kts 238°
2026-04-22 12:58 32.00098 34.88750 132 ft 7 kts 238°
2026-04-22 12:59 32.00084 34.88657 129 ft 11 kts 304°
2026-04-22 12:59 32.00129 34.88573 127 ft 13 kts 300°
2026-04-22 12:59 32.00178 34.88474 128 ft 15 kts 299°
2026-04-22 12:59 32.00229 34.88376 127 ft 15 kts 303°
2026-04-22 13:00 32.00289 34.88268 129 ft 16 kts 303°
2026-04-22 13:00 32.00342 34.88164 126 ft 12 kts 300°
2026-04-22 13:00 32.00390 34.88070 128 ft 15 kts 303°
2026-04-22 13:00 32.00445 34.87969 127 ft 13 kts 299°
2026-04-22 13:01 32.00408 34.87886 127 ft 14 kts 211°
2026-04-22 13:01 32.00317 34.87821 130 ft 13 kts 211°
2026-04-22 13:01 32.00297 34.87836 127 ft 4 kts 120°
2026-04-22 13:01 32.00277 34.87876 127 ft 5 kts 124°
2026-04-22 13:02 32.00266 34.87897 129 ft 0 kts 122°